User: anonymous   Login
Location: East Guldeford
(50.9500°N, 0.7500°E)
Time: 22:14:48
(UTC+00:00)
Language:

USA 245 - Orbit

View from above orbital plane
View from above orbital plane
View from above satellite
View from above satellite

Ground track
Ground track

The orbit data is extracted from the following two-line orbital elements,

1 39232U 13043A   21210.81806223 0.00014000  00000-0  13227-3 0    02
2 39232  97.8960 273.1566 0512790 149.8252 210.1747 14.82494769    01
Epoch (UTC): 29 July 2021 19:38:00
Eccentricity: 0.0512790
inclination: 97.8960°
perigee height: 262 km
apogee height: 980 km
right ascension of ascending node: 273.1566°
argument of perigee: 149.8252°
revolutions per day: 14.82494769
mean anomaly at epoch: 210.1747°
orbit number at epoch: 0

The dashed part of the orbit path shows where the satellite is in the earth's shadow,  

DLR